User: anonymous   Login
Location: Unspecified
(0.0000°N, 0.0000°E)
Time: 12:51:19
(UTC+00:00)
Language:

STUDSAT - Orbit

View from above orbital plane
View from above orbital plane
View from above satellite
View from above satellite

Ground track
Ground track

The orbit data is extracted from the following two-line orbital elements,

1 36796U 10035B   17229.86191598 +.00000264 +00000-0 +35736-4 0  9998
2 36796 098.0344 343.6673 0013906 134.9923 225.2422 14.87148629384401
Epoch (UTC): 17 August 2017 20:41:09
Eccentricity: 0.0013906
inclination: 98.0344°
perigee height: 597 km
apogee height: 616 km
right ascension of ascending node: 343.6673°
argument of perigee: 134.9923°
revolutions per day: 14.87148629
mean anomaly at epoch: 225.2422°
orbit number at epoch: 38440

The dashed part of the orbit path shows where the satellite is in the earth's shadow,  

DLR